Location: Del Amo
(33.8464°N, 118.2104°W)
Time: 16:08:39
(UTC+00:00)

Tiros 1 despin weight - Pass Details

Date: 20 September 2024
Orbit: 572 x 614 km, 48.2° (Epoch: 12 October)

Event Time Altitude Azimuth Distance (km) Brightness Sun altitude
Exits shadow 11:01:06 13° 8° (N) 1,760 ? -32.7°
Drops below altitude 10° 11:02:25 10° 24° (NNE) 1,974 ? -32.4°
Sets 11:05:43 0° 48° (NE) 2,883 ? -31.8°
